Resoconti di bolidi

Dec 29, 2019 - Jan 29, 2020
Trovati resoconti: 2213  negli ultimi 30 giorni  Pagina 4 / 45
IDDate e tempo T.U. (Tempo Universale)Data e tempo localeRegioneCittàStatoDur.MagnitudineSuono differitoSuono contemporaneoFrag.OsservatoreLivello di esperienza
Evento 449-2020
449e2020-01-19 16:40 UT2020-01-19 17:40 CETDE BöselNiedersachsen≈1,5s -9--?Melanie R 1
Evento 448-2020
448a2020-01-18 15:45 UT2020-01-18 16:45 CETDE BuxtehudeNiedersachsen≈3,5s -18---BiancaR 1
Evento 447-2020
447a2020-01-07 17:30 UT2020-01-07 18:30 CETDE JesteburgNiedersachsen≈7,5s -7---StefanD 3
Evento 446-2020
446a2020-01-22 20:55 UT2020-01-22 21:55 CETDE EdewechtNiedersachsen≈3,5s -14---WiebkeH 1
Evento 445-2020
445a2020-01-22 20:08 UT2020-01-22 15:08 ESTUS NY≈1,5s -13--?NicholasB 2
445b2020-01-22 20:10 UT2020-01-22 15:10 ESTUS Great BarringtonMA≈3,5s -6---RoderickR 1
Evento 444-2020
444a2020-01-22 20:00 UT2020-01-22 21:00 CETDE GanderkeseeNiedersachsen≈3,5s 0???Lukas W 2
444b2020-01-22 20:07 UT2020-01-22 21:07 CETDE GroßefehnNiedersachsen≈1,5s -12?-?MetaK 1
444c2020-01-22 20:15 UT2020-01-22 21:15 CETDK Hvidovre≈1,5s -11---AndersL 1
444d2020-01-22 20:20 UT2020-01-22 21:20 CETDK Faaborg≈3,5s -12--CharlotteH 1
444e2020-01-22 20:25 UT2020-01-22 21:25 CETDE DemminMecklenburg-Vorpommern≈1,5s -13?--RicardaF 2
444f2020-01-22 20:32 UT2020-01-22 21:32 CETDK Glesborg≈3,5s -9---LucasF 1
444g2020-01-22 20:33 UT2020-01-22 21:33 CETDK Horsens≈7,5s -16--TinoM 1
444h2020-01-22 20:25 UT2020-01-22 21:25 CETDE WesterstedeNiedersachsen≈3,5s -4---JochenK 2
Evento 443-2020
443a2020-01-22 05:35 UT2020-01-22 06:35 CETDE WächtersbachHessen≈3,5s -7--?KristinaS 2
Evento 442-2020
442a2020-01-22 00:35 UT2020-01-21 19:35 ESTUS WestlakeOH≈3,5s -6---CourtneyN 2
Evento 441-2020
441a2020-01-21 23:25 UT2020-01-22 00:25 CETDE WesterstedeNiedersachsen≈1,5s -6---ChristophW 2
Evento 440-2020
440a2020-01-21 18:50 UT2020-01-21 18:50 GMTGB LoddiswellEngland≈20s -7---DebbieN 3
Evento 439-2020
439a2020-01-21 10:45 UT2020-01-21 05:45 ESTUS Key BiscayneFL≈1,5s -12---Maria C 1
Evento 438-2020
438a2020-01-21 07:40 UT2020-01-21 02:40 ESTUS ChesterVA≈1,5s -18---MelanieM 3
Evento 437-2020
437a2020-01-20 23:30 UT2020-01-21 00:30 CETDE KieselbronnBaden-Württemberg? -30---RubenS 3
Evento 436-2020
436a2020-01-20 16:50 UT2020-01-20 17:50 CETDE OldenburgNiedersachsen? 0?-?DennisS 2
Evento 435-2020
435a2020-01-19 08:33 UT2020-01-19 02:33 CSTUS Council BluffsIA≈1,5s -9---JoAnnaH 4
Evento 434-2020
434a2020-01-18 15:30 UT2020-01-18 21:00 ISTIN <1s -12---AM 1
Evento 433-2020
433a2020-01-04 02:30 UT2020-01-04 03:30 CETDE MittweidaSachsen≈3,5s -5???ChristopherS 1
Evento 432-2020
432a2020-01-22 17:21 UT2020-01-22 18:21 CETIT Villa San GiovanniCalabria<1s -6---MicheleB 2
Evento 431-2020
431a2020-01-22 16:00 UT2020-01-22 17:00 CETDK Næstved≈1,5s -6---Jesper SkovH 2
431b2020-01-22 16:05 UT2020-01-22 17:05 CETDK Fredensborg≈3,5s -14?-Jakob BrünnichW 1
431c2020-01-22 16:10 UT2020-01-22 17:10 CETDK Hjallerup≈3,5s -17---DorteN 3
431d2020-01-22 16:10 UT2020-01-22 17:10 CETDK København≈3,5s -11--?ChristineS 1
431e2020-01-22 16:10 UT2020-01-22 17:10 CETDK København≈3,5s -14---KasperM 1
431f2020-01-22 16:10 UT2020-01-22 17:10 CETDK Albertslund≈3,5s -5???MetteL 1
431g2020-01-22 16:07 UT2020-01-22 17:07 CETDK Kastrup≈1,5s -7---MarioM 3
431h2020-01-22 16:05 UT2020-01-22 17:05 CETDE Bad DoberanMecklenburg-Vorpommern≈1,5s -23---NitzH 2
431i2020-01-22 16:25 UT2020-01-22 17:25 CETDE VarelNiedersachsen>60s -4--?TanjaU 1
431j2020-01-22 16:02 UT2020-01-22 17:02 CETDK Copenhagen≈3,5s -22---SusanneP 5
431k2020-01-22 16:15 UT2020-01-22 17:15 CETDK København≈1,5s -7---ThomasR 2
431l2020-01-22 16:30 UT2020-01-22 17:30 CETDK Lillerød≈3,5s -12---KirD 2
431m2020-01-22 16:30 UT2020-01-22 17:30 CETSE Västra Götalands län<1s -13--?JensE 2
431n2020-01-22 16:05 UT2020-01-22 17:05 CETDK Horbelev? -8??-AntonS 4
431o2020-01-22 16:05 UT2020-01-22 17:05 CETDK København≈1,5s -20--RasmusW 2
Evento 430-2020
430a2020-01-22 11:35 UT2020-01-22 06:35 ESTUS Virginia BeachVA≈7,5s -5---MatthewW 2
Evento 429-2020
429a2020-01-22 14:40 UT2020-01-22 08:40 CSTUS HooverAL≈1,5s -13---WilliamP 3
429b2020-01-22 14:41 UT2020-01-22 08:41 CSTUS BirminghamAL≈1,5s -17??-AishaT 1
Evento 428-2020
428a2020-01-22 09:35 UT2020-01-22 04:35 ESTUS PortsmouthVA≈3,5s -7---WN 3
Evento 427-2020
427a2020-01-22 07:35 UT2020-01-21 23:35 PSTUS Los AngelesCA≈3,5s -26--RikM 1
Evento 426-2020
426a2020-01-21 23:40 UT2020-01-21 18:40 ESTUS MedfordMA≈3,5s -26---TheresaS 3
426b2020-01-21 23:45 UT2020-01-21 18:45 ESTUS SwanseaMA≈1,5s -20---MichelleT 1
Evento 425-2020
425a2020-01-21 17:00 UT2020-01-21 18:00 CETDE AlgermissenNiedersachsen<1s -8---ThomasH 3
Evento 424-2020
424a2020-01-21 06:47 UT2020-01-21 07:47 CETDE JenaThüringen? -26--?KlausW 1